KQ4OSL Weather Reports


time (UTC)temp
C
wind
direction
speed
KPH
gust
KPH
rain 1hr
cm
rain 24hr
cm
rain mn
cm
humidity
%
barometer
mb
20260906113713 20 264 0.0 0.0 0.00 0.00 0.00 99 1015.3
20260906113213 20 263 0.0 0.0 0.00 0.00 0.00 99 1015.1
20260906112712 20 264 0.0 0.0 0.00 0.00 0.00 99 1015.1
20260906112210 20 261 0.0 0.0 0.00 0.00 0.00 99 1015.2
20260906111709 20 261 0.0 0.0 0.00 0.00 0.00 99 1015.2
20260906111203 20 260 0.0 0.0 0.00 0.00 0.00 99 1015.0
20260906110658 20 262 0.0 0.0 0.00 0.00 0.00 99 1015.3
20260906110154 20 265 0.0 0.0 0.00 0.00 0.00 99 1015.3
20260906105648 20 266 0.0 0.0 0.00 0.00 0.00 99 1015.2
20260906105144 20 263 0.0 0.0 0.00 0.00 0.00 99 1015.1
20260906104643 20 265 0.0 0.0 0.00 0.00 0.00 99 1014.9
20260906104143 20 265 0.0 0.0 0.00 0.00 0.00 99 1015.1
20260906103641 20 265 0.0 0.0 0.00 0.00 0.00 99 1014.9
20260906103136 20 263 0.0 0.0 0.00 0.00 0.00 99 1015.0
20260906102632 20 261 0.0 0.0 0.00 0.00 0.00 99 1014.8
20260906102132 20 269 0.0 0.0 0.00 0.00 0.00 99 1014.9
20260906101631 20 263 0.0 0.0 0.00 0.00 0.00 99 1015.0
20260906101131 20 263 0.0 0.0 0.00 0.00 0.00 99 1014.9
20260906100627 20 264 0.0 0.0 0.00 0.00 0.00 99 1015.1
20260906100122 20 262 0.0 0.0 0.00 0.00 0.00 99 1014.9
20260906095622 20 261 0.0 0.0 0.00 0.00 0.00 99 1014.8
20260906095118 20 262 0.0 0.0 0.00 0.00 0.00 99 1014.9
20260906094616 20 266 0.0 0.0 0.00 0.00 0.00 99 1014.6
20260906094113 20 275 0.0 0.0 0.00 0.00 0.00 99 1014.7
20260906093609 20 276 0.0 0.0 0.00 0.00 0.00 99 1014.5
20260906093108 20 263 0.0 0.0 0.00 0.00 0.00 99 1014.6
20260906092603 20 266 0.0 0.0 0.00 0.00 0.00 99 1014.6
20260906092059 20 269 0.0 0.0 0.00 0.00 0.00 99 1014.6
20260906091554 20 260 0.0 0.0 0.00 0.00 0.00 99 1014.5
20260906091051 20 261 0.0 0.0 0.00 0.00 0.00 99 1014.4
20260906090550 20 260 0.0 0.0 0.00 0.00 0.00 99 1014.4
20260906090046 20 260 0.0 0.0 0.00 0.00 0.00 99 1014.3
20260906085544 20 264 0.0 0.0 0.00 0.00 0.00 99 1014.6
20260906085044 20 261 0.0 0.0 0.00 0.00 0.00 99 1014.4
20260906084539 20 262 0.0 0.0 0.00 0.00 0.00 99 1014.4
20260906084037 20 261 0.0 0.0 0.00 0.00 0.00 99 1014.4
20260906083533 21 266 0.0 0.0 0.00 0.00 0.00 99 1014.5
20260906083033 20 266 0.0 0.0 0.00 0.00 0.00 99 1014.3
20260906082528 20 264 0.0 0.0 0.00 0.00 0.00 99 1014.4
20260906082024 21 261 0.0 0.0 0.00 0.00 0.00 99 1014.5
20260906081520 21 266 0.0 0.0 0.00 0.00 0.00 99 1014.4
20260906081015 21 271 0.0 0.0 0.00 0.00 0.00 99 1014.4
20260906080512 21 288 3.2 3.2 0.00 0.00 0.00 99 1014.5
20260906080008 21 286 0.0 0.0 0.00 0.00 0.00 99 1014.6
20260906075501 21 268 0.0 0.0 0.00 0.00 0.00 99 1014.5
20260906074957 21 270 0.0 0.0 0.00 0.00 0.00 99 1014.6
20260906074457 21 266 0.0 0.0 0.00 0.00 0.00 99 1014.5
20260906073955 21 271 0.0 0.0 0.00 0.00 0.00 99 1014.4
20260906073450 21 270 0.0 0.0 0.00 0.00 0.00 99 1014.5
20260906072946 21 266 0.0 0.0 0.00 0.00 0.00 99 1014.5
20260906072441 21 268 0.0 0.0 0.00 0.00 0.00 99 1014.5
20260906071937 21 283 0.0 0.0 0.00 0.00 0.00 99 1014.5
20260906071433 21 256 0.0 0.0 0.00 0.00 0.00 99 1014.6
20260906070929 21 263 0.0 0.0 0.00 0.00 0.00 99 1014.3
20260906070425 21 265 0.0 0.0 0.00 0.00 0.00 99 1014.4
20260906065920 21 263 0.0 0.0 0.00 0.00 0.00 99 1014.4
20260906065414 21 264 0.0 0.0 0.00 0.00 0.00 99 1014.3
20260906064910 21 263 0.0 0.0 0.00 0.00 0.00 99 1014.4
20260906064407 21 262 0.0 0.0 0.00 0.00 0.00 99 1014.6
20260906063906 21 262 0.0 0.0 0.00 0.00 0.00 99 1014.5
20260906063401 21 264 0.0 0.0 0.00 0.00 0.00 99 1014.6
20260906062857 21 262 0.0 0.0 0.00 0.00 0.00 99 1014.6
20260906062355 21 262 0.0 0.0 0.00 0.00 0.00 99 1014.6
20260906061852 21 266 0.0 0.0 0.00 0.00 0.00 99 1014.7
20260906061348 21 266 0.0 0.0 0.00 0.00 0.00 99 1014.6
20260906060842 21 266 0.0 0.0 0.00 0.00 0.00 99 1014.7
20260906060340 21 264 0.0 0.0 0.00 0.00 0.00 99 1014.7
20260906055835 21 262 0.0 0.0 0.00 0.00 0.00 99 1014.8
20260906055331 21 267 0.0 0.0 0.00 0.00 0.00 99 1014.8
20260906054826 21 262 0.0 0.0 0.00 0.00 0.00 99 1014.8
20260906054321 21 258 0.0 0.0 0.00 0.00 0.00 99 1015.2
20260906053818 21 265 0.0 0.0 0.00 0.00 0.00 99 1014.9
20260906053313 21 264 0.0 0.0 0.00 0.00 0.00 99 1015.0
20260906052808 21 262 0.0 0.0 0.00 0.00 0.00 99 1014.8
20260906052306 21 266 0.0 0.0 0.00 0.00 0.00 99 1015.0
20260906051801 21 266 0.0 0.0 0.00 0.00 0.00 99 1015.2
20260906051300 21 266 0.0 0.0 0.00 0.00 0.00 99 1015.1
20260906050756 21 270 0.0 0.0 0.00 0.00 0.00 99 1015.2
20260906050251 21 268 0.0 0.0 0.00 0.00 0.00 99 1015.2
20260906045750 21 281 0.0 0.0 0.00 0.00 0.00 99 1015.3
20260906045245 22 276 0.0 0.0 0.00 0.00 0.00 99 1015.4
20260906044741 22 280 1.6 1.6 0.00 0.00 0.00 99 1015.3
20260906044235 22 270 0.0 0.0 0.00 0.00 0.00 99 1015.3
20260906043732 22 266 0.0 0.0 0.00 0.00 0.00 99 1015.2
20260906043227 22 265 0.0 0.0 0.00 0.00 0.00 99 1015.3
20260906042727 22 283 0.0 0.0 0.00 0.00 0.00 99 1015.4
20260906042226 22 269 0.0 0.0 0.00 0.00 0.00 99 1015.2
20260906041722 22 269 0.0 0.0 0.00 0.00 0.00 99 1015.2
20260906041217 22 268 0.0 0.0 0.00 0.00 0.00 99 1015.3
20260906040712 22 264 0.0 0.0 0.00 0.00 0.00 99 1015.3
20260906040208 22 260 0.0 0.0 0.00 0.00 0.00 99 1015.2
20260906035703 22 262 0.0 0.0 0.00 0.00 0.00 99 1015.2
20260906035159 22 270 0.0 0.0 0.00 0.00 0.00 99 1015.4
20260906034653 22 267 0.0 0.0 0.00 0.00 0.00 99 1015.3
20260906034148 22 266 0.0 1.6 0.00 0.00 0.00 99 1015.4
20260906033644 22 266 0.0 0.0 0.00 0.00 0.00 99 1015.5
20260906033143 22 263 0.0 0.0 0.00 0.00 0.00 99 1015.7
20260906032640 22 256 3.2 3.2 0.00 0.00 0.00 99 1015.9
20260906032140 22 260 1.6 1.6 0.00 0.00 0.00 99 1015.8
20260906031635 22 273 0.0 0.0 0.00 0.00 0.00 99 1016.0
20260906031131 22 271 1.6 1.6 0.00 0.00 0.00 99 1016.0
20260906030630 22 260 1.6 1.6 0.00 0.00 0.00 99 1016.1
20260906030125 22 263 0.0 0.0 0.00 0.00 0.00 99 1016.0
20260906025625 22 257 0.0 0.0 0.00 0.00 0.00 99 1016.2
20260906025124 22 263 0.0 0.0 0.00 0.00 0.00 99 1016.4
20260906024619 22 251 0.0 1.6 0.00 0.00 0.00 99 1016.3
20260906024113 22 262 0.0 0.0 0.00 0.00 0.00 99 1016.1
20260906023610 22 253 0.0 0.0 0.00 0.00 0.00 99 1015.9
20260906023109 22 262 0.0 0.0 0.00 0.00 0.00 99 1016.1
20260906022605 22 265 1.6 1.6 0.00 0.00 0.00 99 1016.0
20260906022100 22 287 4.8 4.8 0.00 0.00 0.00 99 1016.3
20260906021556 22 262 1.6 1.6 0.00 0.00 0.00 99 1016.0
20260906021054 22 282 1.6 1.6 0.00 0.00 0.00 99 1016.0
20260906020549 23 290 1.6 3.2 0.00 0.00 0.00 99 1016.2
20260906020049 22 260 0.0 0.0 0.00 0.00 0.00 99 1016.0
20260906015548 23 266 0.0 0.0 0.00 0.00 0.00 98 1015.8
20260906015047 23 270 0.0 0.0 0.00 0.00 0.00 97 1015.3
20260906014542 23 258 1.6 3.2 0.00 0.00 0.00 97 1015.3
20260906014038 22 280 4.8 4.8 0.00 0.00 0.00 98 1015.3
20260906013533 22 255 6.4 8.0 0.00 0.00 0.00 99 1015.2
20260906013029 22 265 0.0 0.0 0.00 0.00 0.00 99 1015.2
20260906012523 23 255 3.2 3.2 0.00 0.00 0.00 99 1015.1
20260906012023 23 256 3.2 3.2 0.00 0.00 0.00 98 1015.3
20260906011519 23 256 0.0 0.0 0.00 0.00 0.00 98 1015.4
20260906011019 24 261 0.0 1.6 0.00 0.00 0.00 95 1015.6
20260906010514 26 271 0.0 0.0 0.00 0.00 0.00 88 1015.2
20260906010011 27 242 3.2 3.2 0.00 0.00 0.00 85 1015.4
20260906005510 28 287 0.0 1.6 0.00 0.00 0.00 84 1015.7
20260906005009 28 266 1.6 3.2 0.00 0.00 0.00 82 1015.2
20260906004509 28 284 0.0 1.6 0.00 0.00 0.00 83 1015.1
20260906004004 29 259 1.6 3.2 0.00 0.00 0.00 82 1014.5
20260906003459 29 268 0.0 0.0 0.00 0.00 0.00 81 1014.3
20260906002954 29 268 0.0 0.0 0.00 0.00 0.00 81 1014.2
20260906002454 29 256 4.8 8.0 0.00 0.00 0.00 80 1013.4
20260906001950 30 243 4.8 4.8 0.00 0.00 0.00 80 1013.7
20260906001446 30 239 3.2 3.2 0.00 0.00 0.00 79 1013.4
20260906000940 30 235 6.4 9.7 0.00 0.00 0.00 79 1013.4
20260906000436 30 253 8.0 9.7 0.00 0.00 0.00 78 1013.7
20260905235930 30 266 3.2 3.2 0.00 0.00 0.00 79 1013.9
20260905235430 30 259 3.2 3.2 0.00 0.00 0.00 78 1014.1
20260905234925 30 251 3.2 3.2 0.00 0.00 0.00 78 1013.8
20260905234420 30 257 3.2 3.2 0.00 0.00 0.00 78 1013.8
20260905233915 30 253 1.6 1.6 0.00 0.00 0.00 78 1013.3
20260905233410 31 248 4.8 8.0 0.00 0.00 0.00 76 1013.7
20260905232909 31 257 3.2 4.8 0.00 0.00 0.00 76 1013.8
20260905232405 31 253 4.8 8.0 0.00 0.00 0.00 75 1014.0
20260905231900 31 262 4.8 4.8 0.00 0.00 0.00 74 1014.0
20260905231356 31 264 4.8 4.8 0.00 0.00 0.00 74 1014.0
20260905230853 31 283 6.4 9.7 0.00 0.00 0.00 74 1013.7
20260905230350 31 262 6.4 8.0 0.00 0.00 0.00 73 1013.8
20260905225849 31 290 8.0 9.7 0.00 0.00 0.00 73 1013.7
20260905225344 32 277 11.3 12.9 0.00 0.00 0.00 72 1013.7
20260905224839 32 273 11.3 12.9 0.00 0.00 0.00 72 1013.9
20260905224335 32 257 6.4 9.7 0.00 0.00 0.00 71 1013.8
20260905223830 32 256 8.0 9.7 0.00 0.00 0.00 71 1013.7
20260905223328 32 262 4.8 4.8 0.00 0.00 0.00 69 1013.8
20260905222822 33 235 4.8 4.8 0.00 0.00 0.00 66 1013.5
20260905222321 34 280 3.2 3.2 0.00 0.00 0.00 58 1013.3
20260905221817 34 266 0.0 0.0 0.00 0.00 0.00 52 1013.3
20260905221314 34 268 0.0 0.0 0.00 0.00 0.00 50 1013.5
20260905220809 35 263 0.0 0.0 0.00 0.00 0.00 49 1013.7
20260905220306 35 270 0.0 1.6 0.00 0.00 0.00 53 1013.4
20260905215804 35 258 3.2 3.2 0.00 0.00 0.00 46 1013.3
20260905215301 35 267 1.6 3.2 0.00 0.00 0.00 47 1013.4
20260905214756 35 272 1.6 1.6 0.00 0.00 0.00 49 1013.5
20260905214252 35 254 4.8 4.8 0.00 0.00 0.00 47 1013.3
20260905213747 35 278 1.6 1.6 0.00 0.00 0.00 48 1013.5
20260905213243 35 282 1.6 1.6 0.00 0.00 0.00 48 1013.4
20260905212738 35 259 0.0 0.0 0.00 0.00 0.00 50 1013.7
20260905212238 36 252 3.2 3.2 0.00 0.00 0.00 49 1013.5
20260905211737 36 266 0.0 0.0 0.00 0.00 0.00 50 1013.5
20260905211232 35 268 0.0 0.0 0.00 0.00 0.00 49 1013.7
20260905210729 35 46 1.6 3.2 0.00 0.00 0.00 49 1013.8
20260905210229 36 290 1.6 1.6 0.00 0.00 0.00 50 1013.7
20260905205727 35 266 0.0 0.0 0.00 0.00 0.00 49 1013.7
20260905205223 35 266 0.0 0.0 0.00 0.00 0.00 51 1013.7
20260905204722 35 267 0.0 0.0 0.00 0.00 0.00 50 1013.8
20260905204218 35 278 0.0 0.0 0.00 0.00 0.00 52 1013.9
20260905203717 35 270 0.0 0.0 0.00 0.00 0.00 52 1014.1
20260905203213 35 284 1.6 1.6 0.00 0.00 0.00 52 1014.0
20260905202708 35 233 3.2 3.2 0.00 0.00 0.00 50 1014.2
20260905202203 36 268 0.0 0.0 0.00 0.00 0.00 50 1014.1
20260905201659 36 262 0.0 1.6 0.00 0.00 0.00 48 1014.4
20260905201159 36 271 0.0 1.6 0.00 0.00 0.00 50 1014.4
20260905200654 36 253 0.0 1.6 0.00 0.00 0.00 52 1014.6
20260905200150 36 225 1.6 3.2 0.00 0.00 0.00 49 1014.5
20260905195648 36 283 1.6 1.6 0.00 0.00 0.00 52 1014.9
20260905195143 35 239 0.0 1.6 0.00 0.00 0.00 50 1014.5
20260905194638 36 267 0.0 1.6 0.00 0.00 0.00 48 1014.8
20260905194137 35 282 0.0 0.0 0.00 0.00 0.00 53 1014.6
20260905193632 35 303 1.6 1.6 0.00 0.00 0.00 54 1014.6
20260905193127 36 227 4.8 4.8 0.00 0.00 0.00 52 1014.7
20260905192623 35 264 1.6 1.6 0.00 0.00 0.00 51 1014.9
20260905192119 35 218 1.6 3.2 0.00 0.00 0.00 52 1014.9
20260905191618 35 241 4.8 4.8 0.00 0.00 0.00 53 1015.1
20260905191117 34 256 0.0 0.0 0.00 0.00 0.00 56 1015.1
20260905190615 33 284 1.6 1.6 0.00 0.00 0.00 58 1015.1
20260905190115 35 28 3.2 3.2 0.00 0.00 0.00 56 1015.0
20260905185613 36 265 1.6 1.6 0.00 0.00 0.00 55 1015.1
20260905185108 35 302 3.2 3.2 0.00 0.00 0.00 55 1015.4
20260905184603 35 263 1.6 1.6 0.00 0.00 0.00 51 1015.1
20260905184101 35 141 6.4 9.7 0.00 0.00 0.00 51 1015.5
20260905183555 35 273 1.6 1.6 0.00 0.00 0.00 52 1015.5
20260905183051 35 260 1.6 1.6 0.00 0.00 0.00 52 1015.7
20260905182550 35 221 0.0 1.6 0.00 0.00 0.00 52 1015.6
20260905182050 35 299 1.6 3.2 0.00 0.00 0.00 54 1015.7
20260905181544 34 266 3.2 4.8 0.00 0.00 0.00 57 1015.8
20260905181039 35 7 3.2 3.2 0.00 0.00 0.00 56 1015.8
20260905180538 35 244 1.6 1.6 0.00 0.00 0.00 56 1015.9
20260905180034 34 260 3.2 3.2 0.00 0.00 0.00 55 1016.0
20260905175533 33 316 4.8 4.8 0.00 0.00 0.00 56 1015.9
20260905175029 33 270 0.0 0.0 0.00 0.00 0.00 59 1016.1
20260905174525 33 310 4.8 4.8 0.00 0.00 0.00 58 1016.1
20260905174020 33 268 0.0 1.6 0.00 0.00 0.00 62 1016.1
20260905173516 34 276 1.6 1.6 0.00 0.00 0.00 58 1016.4
20260905173012 33 261 1.6 1.6 0.00 0.00 0.00 59 1016.1
20260905172509 33 266 1.6 1.6 0.00 0.00 0.00 63 1016.4
20260905172005 32 261 0.0 0.0 0.00 0.00 0.00 61 1016.6
20260905171502 33 263 0.0 1.6 0.00 0.00 0.00 61 1016.3
20260905170958 33 350 1.6 3.2 0.00 0.00 0.00 61 1016.5
20260905170454 32 278 0.0 1.6 0.00 0.00 0.00 63 1016.8
20260905165954 33 292 4.8 4.8 0.00 0.00 0.00 60 1016.9
20260905165449 34 272 1.6 1.6 0.00 0.00 0.00 62 1016.8
20260905164944 34 277 0.0 0.0 0.00 0.00 0.00 62 1016.6
20260905164443 33 290 1.6 1.6 0.00 0.00 0.00 61 1017.0
20260905163938 33 236 1.6 3.2 0.00 0.00 0.00 59 1016.8
20260905163435 33 309 3.2 3.2 0.00 0.00 0.00 60 1017.1
20260905162931 33 335 4.8 4.8 0.00 0.00 0.00 60 1017.0
20260905162426 35 268 1.6 1.6 0.00 0.00 0.00 60 1016.9
20260905161921 33 298 4.8 4.8 0.00 0.00 0.00 61 1017.0
20260905161420 33 262 1.6 1.6 0.00 0.00 0.00 61 1017.2
20260905160918 33 262 0.0 1.6 0.00 0.00 0.00 64 1017.1
20260905160413 32 250 1.6 3.2 0.00 0.00 0.00 66 1017.1
20260905155912 32 240 3.2 3.2 0.00 0.00 0.00 64 1017.1
20260905155412 32 264 3.2 3.2 0.00 0.00 0.00 64 1017.2
20260905154910 32 294 3.2 3.2 0.00 0.00 0.00 65 1017.1
20260905154407 32 341 4.8 4.8 0.00 0.00 0.00 63 1017.3
20260905153902 33 279 0.0 1.6 0.00 0.00 0.00 68 1017.1
20260905153358 33 260 1.6 1.6 0.00 0.00 0.00 65 1017.1
20260905152858 32 290 4.8 4.8 0.00 0.00 0.00 65 1017.4
20260905152357 33 359 3.2 3.2 0.00 0.00 0.00 65 1017.1
20260905151853 32 330 3.2 3.2 0.00 0.00 0.00 67 1017.3
20260905151349 32 325 3.2 3.2 0.00 0.00 0.00 68 1017.2
20260905150848 32 352 0.0 1.6 0.00 0.00 0.00 68 1017.3
20260905150343 32 269 0.0 1.6 0.00 0.00 0.00 70 1017.4
20260905145840 32 269 1.6 1.6 0.00 0.00 0.00 68 1017.3
20260905145340 31 263 0.0 1.6 0.00 0.00 0.00 68 1017.3
20260905144839 31 334 6.4 8.0 0.00 0.00 0.00 69 1017.4
20260905144335 31 306 1.6 1.6 0.00 0.00 0.00 71 1017.4
20260905143833 31 273 0.0 0.0 0.00 0.00 0.00 72 1017.3
20260905143328 30 286 0.0 0.0 0.00 0.00 0.00 74 1017.5
20260905142827 30 11 9.7 11.3 0.00 0.00 0.00 72 1017.7
20260905142321 30 256 0.0 0.0 0.00 0.00 0.00 76 1017.4
20260905141818 30 262 0.0 0.0 0.00 0.00 0.00 76 1017.5
20260905141313 29 276 1.6 3.2 0.00 0.00 0.00 78 1017.4
20260905140809 30 319 1.6 1.6 0.00 0.00 0.00 78 1017.7
20260905140308 30 261 1.6 1.6 0.00 0.00 0.00 79 1017.4
20260905135807 30 281 4.8 4.8 0.00 0.00 0.00 78 1017.6
20260905135306 29 263 0.0 0.0 0.00 0.00 0.00 79 1017.7
20260905134803 28 263 0.0 0.0 0.00 0.00 0.00 82 1017.8
20260905134256 27 270 0.0 1.6 0.00 0.00 0.00 84 1017.7
20260905133751 27 307 1.6 3.2 0.00 0.00 0.00 84 1017.5
20260905133246 27 265 0.0 1.6 0.00 0.00 0.00 85 1017.6
20260905132745 27 342 3.2 3.2 0.00 0.00 0.00 85 1017.8
20260905132241 27 289 0.0 1.6 0.00 0.00 0.00 87 1017.7
20260905131736 27 286 1.6 1.6 0.00 0.00 0.00 87 1017.6
20260905131231 26 272 0.0 0.0 0.00 0.00 0.00 89 1017.6
20260905130726 25 267 1.6 1.6 0.00 0.00 0.00 92 1017.6
20260905130225 25 300 0.0 0.0 0.00 0.00 0.00 95 1017.8
20260905125720 23 272 1.6 1.6 0.00 0.00 0.00 96 1017.8
20260905125215 23 277 0.0 0.0 0.00 0.00 0.00 98 1017.8
20260905124713 23 277 0.0 0.0 0.00 0.00 0.00 99 1017.8
20260905124208 23 279 0.0 0.0 0.00 0.00 0.00 99 1017.6
20260905123708 22 266 0.0 0.0 0.00 0.00 0.00 99 1017.8
20260905123205 22 261 0.0 0.0 0.00 0.00 0.00 99 1017.6
20260905122704 21 263 0.0 0.0 0.00 0.00 0.00 99 1017.7
20260905122159 21 263 0.0 0.0 0.00 0.00 0.00 99 1017.8
20260905121654 21 259 0.0 0.0 0.00 0.00 0.00 99 1017.6
20260905121150 21 263 0.0 0.0 0.00 0.00 0.00 99 1017.7
20260905120649 21 265 0.0 0.0 0.00 0.00 0.00 99 1017.6
20260905120144 21 265 0.0 0.0 0.00 0.00 0.00 99 1017.6
20260905115643 21 265 0.0 0.0 0.00 0.00 0.00 99 1017.7
20260905115138 21 266 0.0 0.0 0.00 0.00 0.00 99 1017.5
20260905114638 21 283 0.0 0.0 0.00 0.00 0.00 99 1017.6
20260905114136 21 278 0.0 0.0 0.00 0.00 0.00 99 1017.4